This is the latest recevied weather packets stored in our database for station/object KB1WCR. If no packets are shown the sender has not sent any weather packets the latest 10 day(s).
| Time | Temp. | Humidity | Pressure | Rain* | Wind** | Luminosity | Snow |
|---|---|---|---|---|---|---|---|
| 1777951497 | 13.89° C | 63% | 1007.8 hPa | 0 mm | - | 0 W/m² | - |
| 1777951193 | 13.89° C | 64% | 1007.8 hPa | 0 mm | - | 0 W/m² | - |
| 1777950890 | 13.33° C | 64% | 1007.8 hPa | 0 mm | - | 0 W/m² | - |
| 1777950587 | 12.78° C | 68% | 1007.8 hPa | 0 mm | - | 0 W/m² | - |
| 1777950283 | 11.11° C | 75% | 1007.5 hPa | 0 mm | - | 0 W/m² | - |
| 1777949978 | 10.56° C | 78% | 1007.8 hPa | 0 mm | - | 0 W/m² | - |
| 1777949676 | 10.56° C | 78% | 1007.7 hPa | 0 mm | - | 0 W/m² | - |
| 1777949374 | 10.56° C | 77% | 1007.8 hPa | 0 mm | - | 0 W/m² | - |
| 1777949071 | 10.56° C | 77% | 1007.8 hPa | 0 mm | - | 0 W/m² | - |
| 1777948768 | 10.56° C | 77% | 1007.6 hPa | 0 mm | - | 0 W/m² | - |
| 1777948465 | 10.56° C | 78% | 1007.6 hPa | 0 mm | - | 0 W/m² | - |
| 1777948163 | 10° C | 78% | 1007.7 hPa | 0 mm | - | 0 W/m² | - |
| 1777947861 | 10° C | 77% | 1007.5 hPa | 0 mm | - | 0 W/m² | - |
| 1777947557 | 10° C | 78% | 1007.5 hPa | 0 mm | - | 0 W/m² | - |
| 1777947253 | 10° C | 78% | 1007.5 hPa | 0 mm | - | 0 W/m² | - |
| 1777946949 | 10.56° C | 76% | 1007.3 hPa | 0 mm | - | 0 W/m² | - |
| 1777946645 | 10° C | 76% | 1007.4 hPa | 0 mm | - | 0 W/m² | - |
| 1777946342 | 10.56° C | 76% | 1007.2 hPa | 0 mm | - | 0 W/m² | - |
| 1777946039 | 10.56° C | 76% | 1007.3 hPa | 0 mm | - | 0 W/m² | - |
| 1777945736 | 10.56° C | 75% | 1007.3 hPa | 0 mm | - | 0 W/m² | - |
| 1777945433 | 10.56° C | 74% | 1007.2 hPa | 0 mm | - | 0 W/m² | - |
| 1777945130 | 10.56° C | 74% | 1007.2 hPa | 0 mm | - | 0 W/m² | - |
| 1777944827 | 10.56° C | 73% | 1007.1 hPa | 0 mm | - | 0 W/m² | - |
| 1777944525 | 11.11° C | 73% | 1007 hPa | 0 mm | - | 0 W/m² | - |
| 1777944223 | 11.11° C | 73% | 1007 hPa | 0 mm | - | 0 W/m² | - |
* Rain latest hour (hover to see other rain measurements)
** Current wind speed in m/s (hover to see current wind gust speed)